TimeCST,TemperatureF,Dew PointF,Humidity,Sea Level PressureIn,VisibilityMPH,Wind Direction,Wind SpeedMPH,Gust SpeedMPH,PrecipitationIn,Events,Conditions,WindDirDegrees,DateUTC
12:15 AM,23.2,12.2,63,30.27,10.0,West,3.5,-,N/A,,Clear,270,2014-01-15 06:15:00
12:35 AM,21.4,12.7,69,30.27,10.0,WNW,5.8,-,N/A,,Clear,290,2014-01-15 06:35:00
12:55 AM,23.7,12.9,63,30.26,10.0,WNW,6.9,-,N/A,,Mostly Cloudy,300,2014-01-15 06:55:00
1:15 AM,25.7,13.1,59,30.26,10.0,NW,5.8,-,N/A,,Overcast,320,2014-01-15 07:15:00
1:35 AM,25.7,13.5,60,30.26,10.0,Calm,Calm,-,N/A,,Overcast,0,2014-01-15 07:35:00
1:55 AM,25.5,13.6,61,30.26,10.0,WNW,4.6,-,N/A,,Overcast,290,2014-01-15 07:55:00
2:15 AM,25.7,14.2,62,30.25,10.0,West,3.5,-,N/A,,Overcast,270,2014-01-15 08:15:00
2:35 AM,26.1,14.7,62,30.26,10.0,NNW,3.5,-,N/A,,Overcast,330,2014-01-15 08:35:00
2:55 AM,25.7,15.6,66,30.26,10.0,West,3.5,-,N/A,,Overcast,280,2014-01-15 08:55:00
3:15 AM,25.0,16.5,70,30.26,10.0,West,4.6,-,N/A,,Overcast,260,2014-01-15 09:15:00
3:35 AM,23.2,15.8,73,30.25,10.0,West,4.6,-,N/A,,Scattered Clouds,260,2014-01-15 09:35:00
3:55 AM,21.6,15.6,78,30.25,10.0,WSW,3.5,-,N/A,,Clear,250,2014-01-15 09:55:00
4:15 AM,20.8,15.6,80,30.25,10.0,Calm,Calm,-,N/A,,Scattered Clouds,0,2014-01-15 10:15:00
4:35 AM,20.1,15.3,81,30.25,10.0,Calm,Calm,-,N/A,,Clear,0,2014-01-15 10:35:00
4:55 AM,19.8,14.7,81,30.24,10.0,Calm,Calm,-,N/A,,Scattered Clouds,0,2014-01-15 10:55:00
5:15 AM,19.0,14.2,81,30.24,10.0,Calm,Calm,-,N/A,,Mostly Cloudy,0,2014-01-15 11:15:00
5:35 AM,20.3,14.9,80,30.24,10.0,Calm,Calm,-,N/A,,Overcast,0,2014-01-15 11:35:00
5:55 AM,19.9,14.9,81,30.24,10.0,Calm,Calm,-,N/A,,Mostly Cloudy,0,2014-01-15 11:55:00
6:15 AM,19.4,14.5,81,30.23,10.0,Calm,Calm,-,N/A,,Scattered Clouds,0,2014-01-15 12:15:00
6:35 AM,18.1,13.5,82,30.22,10.0,Calm,Calm,-,N/A,,Scattered Clouds,0,2014-01-15 12:35:00
6:55 AM,18.9,14.0,81,30.22,10.0,Calm,Calm,-,N/A,,Scattered Clouds,0,2014-01-15 12:55:00
7:15 AM,18.3,13.8,83,30.21,10.0,Calm,Calm,-,N/A,,Clear,0,2014-01-15 13:15:00
7:35 AM,19.4,14.0,80,30.21,10.0,Calm,Calm,-,N/A,,Mostly Cloudy,0,2014-01-15 13:35:00
7:55 AM,20.8,16.9,85,30.19,10.0,Calm,Calm,-,N/A,,Overcast,0,2014-01-15 13:55:00
8:15 AM,21.0,16.5,83,30.18,10.0,Calm,Calm,-,N/A,,Overcast,0,2014-01-15 14:15:00
8:35 AM,23.5,19.2,84,30.19,10.0,Calm,Calm,-,N/A,,Overcast,0,2014-01-15 14:35:00
8:55 AM,25.5,20.1,80,30.18,10.0,WSW,3.5,-,N/A,,Overcast,240,2014-01-15 14:55:00
9:15 AM,26.8,21.2,79,30.17,10.0,WSW,3.5,-,N/A,,Overcast,250,2014-01-15 15:15:00
9:35 AM,28.0,21.6,77,30.16,10.0,SW,3.5,-,N/A,,Overcast,220,2014-01-15 15:35:00
9:55 AM,29.5,21.4,72,30.16,10.0,SSW,4.6,-,N/A,,Overcast,210,2014-01-15 15:55:00
10:15 AM,31.1,21.9,69,30.15,10.0,SSW,6.9,-,N/A,,Overcast,200,2014-01-15 16:15:00
10:35 AM,32.0,22.3,67,30.15,10.0,SW,6.9,-,N/A,,Mostly Cloudy,220,2014-01-15 16:35:00
10:55 AM,34.2,22.5,62,30.15,10.0,SW,9.2,-,N/A,,Mostly Cloudy,220,2014-01-15 16:55:00
11:15 AM,35.6,22.6,59,30.13,10.0,SW,8.1,-,N/A,,Mostly Cloudy,220,2014-01-15 17:15:00
11:35 AM,37.4,22.6,55,30.11,10.0,WSW,10.4,-,N/A,,Scattered Clouds,240,2014-01-15 17:35:00
11:55 AM,38.1,22.5,53,30.09,10.0,WSW,9.2,16.1,N/A,,Mostly Cloudy,240,2014-01-15 17:55:00
12:15 PM,39.6,23.2,52,30.08,10.0,SW,9.2,16.1,N/A,,Mostly Cloudy,220,2014-01-15 18:15:00
12:35 PM,40.1,23.0,51,30.05,10.0,SW,6.9,-,N/A,,Overcast,220,2014-01-15 18:35:00
12:55 PM,41.4,23.0,48,30.03,10.0,SSW,10.4,-,N/A,,Mostly Cloudy,210,2014-01-15 18:55:00
1:15 PM,42.1,23.0,47,30.00,10.0,SSW,11.5,-,N/A,,Mostly Cloudy,200,2014-01-15 19:15:00
1:35 PM,43.0,21.6,43,29.98,10.0,SW,9.2,16.1,N/A,,Mostly Cloudy,230,2014-01-15 19:35:00
1:55 PM,42.8,21.7,43,29.96,10.0,SSW,10.4,17.3,N/A,,Overcast,210,2014-01-15 19:55:00
2:15 PM,43.9,19.0,37,29.93,10.0,SSW,12.7,-,N/A,,Overcast,200,2014-01-15 20:15:00
2:35 PM,44.6,17.1,33,29.92,10.0,SSW,12.7,-,N/A,,Overcast,210,2014-01-15 20:35:00
2:55 PM,44.8,18.3,35,29.91,10.0,SSW,12.7,20.7,N/A,,Overcast,200,2014-01-15 20:55:00
3:15 PM,45.9,19.0,34,29.91,10.0,SW,13.8,18.4,N/A,,Mostly Cloudy,220,2014-01-15 21:15:00
3:35 PM,45.9,19.8,35,29.90,10.0,SSW,13.8,19.6,N/A,,Mostly Cloudy,210,2014-01-15 21:35:00
3:55 PM,45.7,19.9,36,29.89,10.0,SSW,9.2,18.4,N/A,,Overcast,210,2014-01-15 21:55:00
4:15 PM,47.1,19.4,33,29.89,10.0,SW,13.8,19.6,N/A,,Mostly Cloudy,220,2014-01-15 22:15:00
4:35 PM,46.6,19.8,34,29.88,10.0,SSW,9.2,-,N/A,,Clear,210,2014-01-15 22:35:00
4:55 PM,46.0,19.8,35,29.88,10.0,SW,8.1,-,N/A,,Scattered Clouds,220,2014-01-15 22:55:00
5:15 PM,45.9,20.3,36,29.86,10.0,South,5.8,-,N/A,,Overcast,180,2014-01-15 23:15:00
5:35 PM,44.8,20.8,39,29.84,10.0,SSW,5.8,-,N/A,,Overcast,200,2014-01-15 23:35:00
5:55 PM,44.2,21.0,40,29.84,10.0,SSW,4.6,-,N/A,,Overcast,200,2014-01-15 23:55:00
6:15 PM,44.6,21.0,39,29.83,10.0,South,8.1,-,N/A,,Overcast,190,2014-01-16 00:15:00
6:35 PM,44.8,20.8,39,29.82,10.0,South,11.5,-,N/A,,Overcast,190,2014-01-16 00:35:00
6:55 PM,44.8,21.2,39,29.81,10.0,South,8.1,-,N/A,,Overcast,180,2014-01-16 00:55:00
7:15 PM,43.7,21.7,42,29.81,10.0,South,4.6,-,N/A,,Overcast,190,2014-01-16 01:15:00
7:35 PM,45.3,22.5,40,29.80,10.0,SSW,10.4,-,N/A,,Overcast,210,2014-01-16 01:35:00
7:55 PM,45.5,23.2,41,29.80,10.0,WSW,6.9,-,N/A,,Overcast,250,2014-01-16 01:55:00
8:15 PM,44.2,23.7,44,29.80,10.0,West,4.6,-,N/A,,Overcast,260,2014-01-16 02:15:00
8:35 PM,44.8,23.9,44,29.81,10.0,NNW,3.5,-,N/A,,Overcast,340,2014-01-16 02:35:00
8:55 PM,44.8,23.9,44,29.80,10.0,West,3.5,-,N/A,,Overcast,270,2014-01-16 02:55:00
9:15 PM,44.1,23.9,45,29.80,10.0,West,3.5,-,N/A,,Overcast,270,2014-01-16 03:15:00
9:35 PM,43.3,24.3,47,29.81,10.0,WNW,5.8,-,N/A,,Overcast,300,2014-01-16 03:35:00
9:55 PM,44.1,25.0,47,29.81,10.0,WNW,6.9,-,N/A,,Overcast,300,2014-01-16 03:55:00
10:15 PM,44.4,25.7,48,29.81,10.0,WNW,5.8,-,N/A,,Mostly Cloudy,300,2014-01-16 04:15:00
10:35 PM,42.8,26.2,52,29.81,10.0,WNW,5.8,-,N/A,,Scattered Clouds,290,2014-01-16 04:35:00
10:55 PM,40.6,26.4,57,29.82,10.0,West,5.8,-,N/A,,Clear,260,2014-01-16 04:55:00
11:15 PM,39.0,26.6,61,29.83,10.0,West,3.5,-,N/A,,Mostly Cloudy,280,2014-01-16 05:15:00
11:35 PM,38.8,26.4,61,29.85,10.0,WNW,3.5,-,N/A,,Overcast,300,2014-01-16 05:35:00
11:55 PM,39.4,27.0,61,29.85,10.0,WNW,5.8,-,N/A,,Overcast,300,2014-01-16 05:55:00